Voltar ao catálogo

DMSP 5D-2 F11 DEB

AtivoSSO
NORAD 28335·DEBRIS·🇺🇸 United States

Lançado Nov 28, 1991 de Vandenberg Space Force Base

Loading…

Próximas Passagens (próximas 24 horas)

TLE

EnvelhecendoSource: Space-Track

Época: Sep 10, 2026, 11:45 UTC

1 28335U 91082AY  26253.49013632  .00002598  00000-0  70354-3 0  9993
2 28335  98.5544 330.0319 0007816 359.7389   0.3799 14.48531621687355

Acompanhe DMSP 5D-2 F11 DEB em tempo real com AllMySat

Download on the App Store